South Lake Tahoe, CA

6:15 PM PST on February 24, 2017 (GMT -0800)
Lake Tahoe

Weather History for KTVL - May, 2014

Change the Weather History Date:

Thursday, May 8, 2014

  Actual Average Record
Temperature  
Mean Temperature 45 °F 46 °F  
Max Temperature 57 °F 61 °F 76 °F (2001)
Min Temperature 33 °F 31 °F 15 °F (1979)
Degree Days  
Heating Degree Days 20 19  
Month to date heating degree days 131 160  
Since 1 July heating degree days 6172 7050  
Cooling Degree Days 0 0  
Month to date cooling degree days 0 0  
Year to date cooling degree days 0 0  
Moisture  
Dew Point 31 °F    
Average Humidity 56    
Maximum Humidity 82    
Minimum Humidity 30    
Precipitation  
Precipitation 0.03 in - 0.57 in (1955)
Month to date precipitation 0.19  
Year to date precipitation 11.29  
Sea Level Pressure  
Sea Level Pressure 29.97 in    
Wind  
Wind Speed 7 mph (SSW)    
Max Wind Speed 24 mph    
Max Gust Speed 38 mph    
Visibility 10 miles    
Events Rain    
T = Trace of Precipitation, MM = Missing Value Source: NWS Daily Summary

Daily Weather History Graph

Daily Weather History Graph

Search for Another Location

Airport or City:

Trip Planner

Search our weather history database for the weather conditions in past years. The results will help you decide how hot, cold, wet, or windy it might be!

Date:

Astronomy

May. 08, 2014 Rise Set
Actual Time 5:54 AM PDT 7:59 PM PDT
Civil Twilight 5:24 AM PDT 8:28 PM PDT
Nautical Twilight 4:48 AM PDT 9:04 PM PDT
Astronomical Twilight 4:10 AM PDT 9:43 PM PDT
Moon 2:08 PM PDT (5/8) 2:24 AM PDT (5/8)
Length of Visible Light 15h 04m
Length of Day
14h 05m
Waxing Gibbous, 66% of the Moon is Illuminated
May 8
Waxing Gibbous
May 14
Full
May 21
Last Quarter
May 28
New
Jun 5
First Quarter

Hourly Weather History & Observations

Time (PDT) Temp. Windchill Dew Point Humidity Pressure Visibility Wind Dir Wind Speed Gust Speed Precip Events Conditions
12:53 AM 37.0 °F 34.5 °F 30.9 °F 79% 29.95 in 10.0 mi South 3.5 mph - N/A   Clear
1:53 AM 37.0 °F - 30.0 °F 76% 29.95 in 10.0 mi Calm Calm - N/A   Clear
2:53 AM 36.0 °F - 30.0 °F 79% 29.94 in 10.0 mi Calm Calm - N/A   Clear
3:53 AM 36.0 °F - 30.0 °F 79% 29.94 in 10.0 mi Calm Calm - N/A   Mostly Cloudy
4:53 AM 35.1 °F 32.2 °F 28.9 °F 78% 29.95 in 10.0 mi South 3.5 mph - N/A   Partly Cloudy
5:53 AM 34.0 °F 31.0 °F 28.0 °F 79% 29.96 in 10.0 mi SSW 3.5 mph - N/A   Clear
6:53 AM 35.1 °F 31.0 °F 30.0 °F 82% 29.96 in 10.0 mi SSW 4.6 mph - N/A   Overcast
7:53 AM 46.0 °F 42.5 °F 30.9 °F 56% 29.95 in 10.0 mi South 6.9 mph - N/A   Overcast
8:53 AM 48.9 °F - 24.1 °F 38% 29.96 in 10.0 mi South 12.7 mph 23.0 mph N/A   Mostly Cloudy
11:53 AM 55.0 °F - 25.0 °F 31% 29.98 in 10.0 mi SSW 13.8 mph 20.7 mph N/A   Clear
12:53 PM 55.9 °F - 28.9 °F 36% 29.97 in 10.0 mi SSW 16.1 mph 24.2 mph N/A   Scattered Clouds
2:53 PM 51.1 °F - 33.1 °F 50% 30.01 in 10.0 mi SSW 12.7 mph 23.0 mph N/A   Overcast
3:53 PM 52.0 °F - 32.0 °F 47% 30.00 in 10.0 mi South 15.0 mph 20.7 mph N/A   Overcast
4:53 PM 52.0 °F - 32.0 °F 47% 29.99 in 10.0 mi SSW 15.0 mph 23.0 mph N/A   Clear
5:53 PM 50.0 °F - 32.0 °F 50% 29.99 in 10.0 mi SSW 15.0 mph 21.9 mph N/A   Clear
6:53 PM 48.9 °F - 32.0 °F 52% 30.00 in 10.0 mi SSW 8.1 mph 21.9 mph N/A   Overcast
7:53 PM 48.0 °F - 30.9 °F 52% 29.98 in 10.0 mi South 15.0 mph 24.2 mph N/A   Overcast
8:53 PM 46.0 °F 40.6 °F 32.0 °F 58% 29.98 in 10.0 mi SSW 11.5 mph 23.0 mph 0.00 in Rain Light Rain
9:53 PM 46.0 °F 41.0 °F 33.1 °F 61% 29.96 in 10.0 mi SSW 10.4 mph 20.7 mph 0.00 in Rain Light Rain
10:12 PM 46.0 °F 38.8 °F 34.0 °F 63% 30.06 in 10.0 mi South 18.4 mph 36.8 mph 0.00 in Rain Light Rain
10:53 PM 44.1 °F 36.5 °F 36.0 °F 73% 29.96 in 9.0 mi South 17.3 mph 25.3 mph 0.01 in Rain Light Rain
11:53 PM 44.1 °F 38.6 °F 34.0 °F 68% 29.95 in 10.0 mi SSW 10.4 mph 26.5 mph 0.01 in Rain Light Rain